User: anonymous   Login
Location: Unspecified
(0.0000°N, 0.0000°E)
Time: 04:44:44
(UTC+00:00)
Language:

Tiros 5 - Orbit

View from above orbital plane
View from above orbital plane
View from above satellite
View from above satellite

Ground track
Ground track

The orbit data is extracted from the following two-line orbital elements,

1 00309U 62025A   18020.27914756 -.00000094  00000-0  20229-4 0  9992
2 00309  58.0917 293.9263 0195248  13.2201 347.3839 14.56720526934210
Epoch (UTC): 20 January 2018 06:41:58
Eccentricity: 0.0195248
inclination: 58.0917°
perigee height: 565 km
apogee height: 842 km
right ascension of ascending node: 293.9263°
argument of perigee: 13.2201°
revolutions per day: 14.56720526
mean anomaly at epoch: 347.3839°
orbit number at epoch: 93421

The dashed part of the orbit path shows where the satellite is in the earth's shadow,  

DLR